User: anonymous   Login
Location: Unspecified
(0.0000°N, 0.0000°E)
Time: 05:47:20
(UTC+00:00)
Language:

AO-73 - Orbit

View from above orbital plane
View from above orbital plane
View from above satellite
View from above satellite

Ground track
Ground track

The orbit is defined by the following mean orbital elements,

1 39444U          26106.65557581 +.00000000 +00000-0 +36089-3 0 00003
2 39444  97.8238  76.8736 0038542  54.9890 305.4945 15.08603541    00
Epoch (UTC): 16 April 2026 15:44:01
Eccentricity: 0.0038542
inclination: 97.8238°
perigee height: 514 km
apogee height: 567 km
right ascension of ascending node: 76.8736°
argument of perigee: 54.9890°
revolutions per day: 15.08603541
mean anomaly at epoch: 305.4945°

The dashed part of the orbit path shows where the satellite is in the earth's shadow,  

DLR